Location: Clinton NY
(43.0598°N, 75.3602°W)
Time: 02:08:46
(UTC-05:00)

Amateur Radio Satellites - All Passes

Search period start: 22 December 2014 01:38
Search period end: 23 December 2014 01:38
Location: Clinton NY, 43.0598°N, 75.3602°W

Satellite Date Start Highest point End Downlink Frequencies (MHz)
Time Altitude Azimuth
AUBIESAT-1 22 Dec 01:41:20 01:45:51 39° 258° (WSW) 01:50:27 437.475
O/OREOS (USA 219) 22 Dec 01:51:13 01:54:12 17° 307° (NW) 01:57:11 437.305
HORYU 2 22 Dec 02:05:13 02:05:45 10° 88° (E) 02:06:18 437.375
M-CUBED/EXP-1 PRIME 22 Dec 02:09:13 02:12:49 21° 263° (W) 02:16:29 437.505
STARS 22 Dec 02:09:44 02:14:07 78° 257° (WSW) 02:18:31 437.465
KKS-1 22 Dec 02:16:48 02:21:01 44° 261° (W) 02:25:16 437.445
VERMONT LUNAR 22 Dec 02:31:26 02:34:26 26° 158° (SSE) 02:37:25 437.305
Oscar 19 22 Dec 02:49:27 02:53:43 26° 295° (WNW) 02:57:58 437.125/150
AIST 1 22 Dec 02:49:54 02:53:54 38° 76° (ENE) 02:57:53
AO-7 22 Dec 02:51:23 02:57:01 19° 90° (E) 03:02:35 29.400- 29.500
PHONESAT 2.4 22 Dec 02:52:17 02:55:19 25° 157° (SSE) 02:58:21 2401.200-2431.200
ITAMSAT 1 22 Dec 03:07:55 03:12:49 44° 291° (WNW) 03:17:42 435.822/435.867
Gurwin Techsat 1B 22 Dec 03:11:20 03:16:37 66° 287° (WNW) 03:21:51 435.225
MOZHAYETS 4 22 Dec 03:36:23 03:40:45 42° 71° (ENE) 03:45:08
HORYU 2 22 Dec 03:38:26 03:42:59 80° 285° (WNW) 03:47:29 437.375
JAS-2 22 Dec 03:39:46 03:40:08 10° 84° (E) 03:40:29 435.910
VERMONT LUNAR 22 Dec 04:08:57 04:12:24 54° 174° (S) 04:15:52 437.305
SO-50 22 Dec 04:11:09 04:15:17 27° 43° (NE) 04:19:26 436.795
AIST 1 22 Dec 04:28:23 04:31:15 18° 274° (W) 04:34:06
PHONESAT 2.4 22 Dec 04:30:06 04:33:39 54° 173° (S) 04:37:12 2401.200-2431.200
AO-7 22 Dec 04:42:23 04:50:49 90° 289° (WNW) 04:59:11 29.400- 29.500
GONETS M04 22 Dec 05:00:14 05:08:46 57° 90° (E) 05:17:20
CUBESAT XI-V 22 Dec 05:04:23 05:08:16 27° 67° (ENE) 05:12:10 437.345
CUTE-I 22 Dec 05:09:33 05:12:35 15° 90° (E) 05:15:36 437.470
MOZHAYETS 4 22 Dec 05:14:38 05:18:08 21° 267° (W) 05:21:39
JAS-2 22 Dec 05:20:37 05:26:17 89° 104° (ESE) 05:31:30 435.910
PRISM 22 Dec 05:22:54 05:27:08 87° 76° (ENE) 05:31:23 437.425
VERMONT LUNAR 22 Dec 05:47:07 05:50:31 46° 191° (SSW) 05:53:55 437.305
SO-50 22 Dec 05:51:21 05:56:05 50° 242° (WSW) 06:00:49 436.795
STRAND 1 22 Dec 05:51:22 05:56:26 70° 73° (ENE) 06:01:32 437.568
PHONESAT 2.4 22 Dec 06:08:38 06:12:08 48° 190° (S) 06:15:39 2401.200-2431.200
Cubesat XI-IV 22 Dec 06:15:03 06:20:20 61° 101° (ESE) 06:25:35 437.490
AO-7 22 Dec 06:36:27 06:42:33 23° 309° (NW) 06:48:39 29.400- 29.500
CUBESAT XI-V 22 Dec 06:41:23 06:45:35 33° 264° (W) 06:49:48 437.345
CUTE-I 22 Dec 06:47:52 06:53:10 71° 287° (WNW) 06:58:27 437.470
GONETS M04 22 Dec 06:58:11 07:06:00 34° 291° (WNW) 07:13:51
JAS-2 22 Dec 07:07:50 07:10:26 14° 305° (NW) 07:12:57 435.910
VERMONT LUNAR 22 Dec 07:25:54 07:28:22 18° 207° (SSW) 07:30:50 437.305
STRAND 1 22 Dec 07:33:24 07:36:08 14° 270° (W) 07:38:52 437.568
MaSat-1 22 Dec 07:40:35 07:41:50 14° 110° (ESE) 07:43:04 437.345
PHONESAT 2.4 22 Dec 07:47:42 07:50:23 20° 207° (SSW) 07:53:04 2401.200-2431.200
BRITE-PL 22 Dec 07:50:55 07:54:12 18° 93° (E) 07:57:38 437.365/2234.400
Cubesat XI-IV 22 Dec 07:56:14 07:59:56 20° 299° (WNW) 08:03:38 437.490
CANX-2 22 Dec 08:02:20 08:05:27 19° 92° (E) 08:08:33 2200.000
GOMX 1 22 Dec 08:08:44 08:12:17 20° 93° (E) 08:15:57 467.674
HO-68 22 Dec 08:18:13 08:24:42 36° 97° (E) 08:31:09 435.675
COMPASS 1 22 Dec 08:19:14 08:22:18 19° 93° (E) 08:25:22 437.405
DOVE 4 22 Dec 08:26:02 08:29:47 22° 94° (E) 08:33:39 437.250
SEEDS 22 Dec 08:26:43 08:30:24 27° 95° (E) 08:34:03 437.485
ANTELSAT 22 Dec 08:30:13 08:32:23 14° 61° (ENE) 08:34:34 437.575/2403.000
CUTE-I 22 Dec 08:31:16 08:32:16 11° 305° (NW) 08:33:16 437.470
CUTE 1.7 + AOD 2 22 Dec 08:32:15 08:36:16 36° 97° (E) 08:40:14 437.475
CINEMA 3 22 Dec 08:39:06 08:42:20 18° 92° (E) 08:45:37 145.822/145.860
O/OREOS (USA 219) 22 Dec 08:40:53 08:43:37 16° 51° (NE) 08:46:21 437.305
DANDE 22 Dec 08:41:12 08:44:08 22° 84° (E) 08:47:47 436.750
POPSAT HIP 1 22 Dec 08:46:17 08:47:48 12° 61° (ENE) 08:49:18 437.405
UWE-3 22 Dec 08:47:47 08:48:23 10° 88° (E) 08:48:58 435.000/436.395/437.385
DX 1 22 Dec 08:56:16 08:58:54 16° 92° (E) 09:01:32 434.975-435.025
TIGRISAT 22 Dec 09:02:47 09:06:27 27° 67° (ENE) 09:10:14 435.000
BUGSAT 1 22 Dec 09:03:10 09:05:14 14° 63° (ENE) 09:07:17 437.445
DUCHIFAT 1 22 Dec 09:11:27 09:14:37 21° 66° (ENE) 09:17:48 145.980
MaSat-1 22 Dec 09:13:48 09:14:55 13° 305° (NW) 09:16:01 437.345
YUBILEINY 22 Dec 09:14:38 09:21:27 25° 64° (ENE) 09:28:13 435.215
Oscar 11 22 Dec 09:14:39 09:18:38 34° 97° (E) 09:22:35 145.826/435.025
AAUSAT CUBESAT 2 22 Dec 09:17:16 09:21:32 74° 102° (ESE) 09:25:45 437.432
CUSAT 1 22 Dec 09:22:30 09:26:18 82° 99° (E) 09:31:30 437.405
UKube-1 22 Dec 09:24:27 09:28:17 30° 97° (E) 09:32:06 .
QB50P2 22 Dec 09:25:43 09:29:25 30° 69° (ENE) 09:33:07 145.880/145.840
BRITE-PL 22 Dec 09:28:19 09:32:56 53° 287° (WNW) 09:37:54 437.365/2234.400
UNISAT 6 22 Dec 09:32:10 09:36:27 55° 73° (ENE) 09:40:52 437.425
RS-15 22 Dec 09:34:12 09:40:47 18° 98° (E) 09:47:19 29.354- 29.394
POLYITAN 1 22 Dec 09:34:58 09:38:52 38° 70° (ENE) 09:42:47 437.675
NANOSAT C BR1 22 Dec 09:35:35 09:39:28 38° 70° (ENE) 09:43:22 145.865
CANX-2 22 Dec 09:37:30 09:41:33 39° 289° (WNW) 09:45:33 2200.000
GOMX 1 22 Dec 09:45:58 09:50:34 49° 288° (WNW) 09:55:29 467.674
CUBEBUG 2 22 Dec 09:46:28 09:51:01 51° 99° (E) 09:55:38 437.445
ZACube-1 22 Dec 09:49:27 09:53:44 39° 98° (E) 09:58:02 437.345
QB50P1 22 Dec 09:50:03 09:54:10 55° 73° (ENE) 09:58:18 145.935-145.965
COMPASS 1 22 Dec 09:54:12 09:58:10 38° 289° (WNW) 10:02:06 437.405
VELOX 1 22 Dec 09:57:57 10:01:35 25° 95° (E) 10:05:13 145.980
DELFI C3 22 Dec 09:59:32 10:03:41 89° 284° (WNW) 10:07:47 145.870
50 SAT 22 Dec 10:00:30 10:03:49 23° 94° (E) 10:07:07 437.505
SEEDS 22 Dec 10:02:31 10:06:10 27° 292° (WNW) 10:09:47 437.485
DOVE 4 22 Dec 10:03:07 10:07:41 45° 288° (WNW) 10:12:29 437.250
ANTELSAT 22 Dec 10:04:13 10:08:34 68° 258° (WSW) 10:13:05 437.575/2403.000
HO-68 22 Dec 10:05:46 10:12:31 46° 295° (WNW) 10:19:13 435.675
ESTCUBE 1 22 Dec 10:08:13 10:10:23 13° 90° (E) 10:12:32 437.505/2401.250
CUTE 1.7 + AOD 2 22 Dec 10:08:40 10:11:57 22° 294° (WNW) 10:15:14 437.475
CINEMA 3 22 Dec 10:15:09 10:19:47 54° 287° (WNW) 10:24:35 145.822/145.860
FUNcube-1 22 Dec 10:15:27 10:20:01 73° 102° (ESE) 10:24:36 145.935
POPSAT HIP 1 22 Dec 10:18:56 10:23:07 71° 258° (WSW) 10:27:20 437.405
O/OREOS (USA 219) 22 Dec 10:19:00 10:23:29 65° 250° (WSW) 10:27:58 437.305
UWE-3 22 Dec 10:20:50 10:25:27 84° 284° (WNW) 10:30:08 435.000/436.395/437.385
DANDE 22 Dec 10:24:02 10:27:22 28° 294° (WNW) 10:31:38 436.750
DX 1 22 Dec 10:31:13 10:35:25 49° 288° (WNW) 10:39:36 434.975-435.025
HUMSAT D 22 Dec 10:36:11 10:40:32 72° 102° (ESE) 10:44:52 437.325/437.525
BUGSAT 1 22 Dec 10:36:17 10:40:17 54° 259° (W) 10:44:17 437.445
TIGRISAT 22 Dec 10:39:17 10:43:07 30° 265° (W) 10:47:03 435.000
CUBEBUG 1 22 Dec 10:41:21 10:45:04 27° 96° (E) 10:48:46 437.445
AISAT 22 Dec 10:41:38 10:46:05 74° 103° (ESE) 10:50:32 437.250
DUCHIFAT 1 22 Dec 10:46:26 10:50:16 35° 263° (W) 10:54:09 145.980
Oscar 11 22 Dec 10:51:09 10:54:37 23° 293° (WNW) 10:58:04 145.826/435.025
AAUSAT CUBESAT 2 22 Dec 10:55:13 10:56:35 11° 299° (WNW) 10:57:58 437.432
UKube-1 22 Dec 11:00:45 11:04:20 26° 293° (WNW) 11:07:55 .
QB50P2 22 Dec 11:01:55 11:05:20 24° 265° (W) 11:08:47 145.880/145.840
CUSAT 1 22 Dec 11:09:49 11:10:44 11° 307° (NW) 11:11:41 437.405
YUBILEINY 22 Dec 11:10:31 11:19:11 76° 266° (W) 11:27:51 435.215
UNISAT 6 22 Dec 11:11:11 11:13:37 15° 270° (W) 11:16:06 437.425
POLYITAN 1 22 Dec 11:11:55 11:14:57 19° 267° (W) 11:17:59 437.675
NANOSAT C BR1 22 Dec 11:12:28 11:15:29 19° 267° (W) 11:18:30 145.865
CUBEBUG 2 22 Dec 11:24:07 11:27:21 19° 296° (WNW) 11:30:38 437.445
ZACube-1 22 Dec 11:26:20 11:29:52 23° 294° (WNW) 11:33:25 437.345
QB50P1 22 Dec 11:28:22 11:30:24 13° 269° (W) 11:32:26 145.935-145.965
TISAT 1 22 Dec 11:32:33 11:36:01 24° 95° (E) 11:39:29 437.305
VELOX 1 22 Dec 11:34:15 11:38:11 32° 291° (WNW) 11:42:07 145.980
50 SAT 22 Dec 11:35:22 11:39:03 31° 291° (WNW) 11:42:43 437.505
RS-15 22 Dec 11:40:17 11:51:11 79° 120° (ESE) 12:02:09 29.354- 29.394
SPROUT 22 Dec 11:41:48 11:45:35 29° 96° (E) 11:49:21 437.525
ESTCUBE 1 22 Dec 11:43:13 11:47:40 62° 287° (WNW) 11:52:05 437.505/2401.250
FUNcube-1 22 Dec 11:53:39 11:55:47 13° 298° (WNW) 11:57:55 145.935
UWE-3 22 Dec 12:00:43 12:01:15 10° 301° (WNW) 12:01:47 435.000/436.395/437.385
ISS 22 Dec 12:13:19 12:15:54 21° 135° (SE) 12:18:29 145.825
BEESAT 3 22 Dec 12:13:48 12:17:25 31° 115° (ESE) 12:21:06 437.485
HUMSAT D 22 Dec 12:14:01 12:15:45 12° 299° (WNW) 12:17:29 437.325/437.525
CUBEBUG 1 22 Dec 12:17:41 12:21:23 28° 292° (WNW) 12:25:05 437.445
AISAT 22 Dec 12:20:17 12:22:07 12° 300° (WNW) 12:23:57 437.250
Oscar 19 22 Dec 12:27:22 12:32:27 66° 73° (ENE) 12:37:36 437.125/150
PCSat 22 Dec 12:30:51 12:35:24 28° 109° (ESE) 12:39:58 145.827
AIST 2 22 Dec 12:32:15 12:35:25 21° 112° (ESE) 12:38:39 435.215
ITAMSAT 1 22 Dec 12:47:47 12:52:34 40° 68° (ENE) 12:57:22 435.822/435.867
Gurwin Techsat 1B 22 Dec 12:54:31 12:59:02 29° 65° (ENE) 13:03:34 435.225
BEESAT 2 22 Dec 12:54:53 12:59:00 75° 121° (ESE) 13:03:11 435.950
HORYU 2 22 Dec 13:04:22 13:06:11 12° 60° (ENE) 13:07:59 437.375
TISAT 1 22 Dec 13:08:09 13:11:51 30° 291° (WNW) 13:15:33 437.305
YUBILEINY 22 Dec 13:10:12 13:14:24 15° 286° (WNW) 13:18:36 435.215
SWISSCUBE 22 Dec 13:10:40 13:15:14 44° 99° (E) 13:19:46 437.505
ITUPSAT 1 22 Dec 13:11:59 13:16:30 41° 98° (E) 13:20:59 437.325
SPROUT 22 Dec 13:18:00 13:21:34 26° 292° (WNW) 13:25:09 437.525
AUBIESAT-1 22 Dec 13:24:44 13:27:10 15° 95° (E) 13:29:28 437.475
BEESAT 22 Dec 13:35:08 13:39:55 73° 103° (ESE) 13:44:40 436.000
ISS 22 Dec 13:49:02 13:52:16 52° 332° (NNW) 13:55:31 145.825
M-CUBED/EXP-1 PRIME 22 Dec 13:50:48 13:54:41 32° 101° (E) 13:58:14 437.505
AO-7 22 Dec 13:51:12 13:58:15 32° 56° (NE) 14:05:21 29.400- 29.500
BEESAT 3 22 Dec 13:51:57 13:55:35 29° 313° (NW) 13:59:15 437.485
RS-15 22 Dec 13:54:47 14:04:41 38° 326° (NW) 14:14:46 29.354- 29.394
STARS 22 Dec 13:59:49 14:02:56 19° 93° (E) 14:06:02 437.465
KKS-1 22 Dec 14:07:08 14:11:11 32° 97° (E) 14:15:12 437.445
Oscar 19 22 Dec 14:09:15 14:12:16 16° 270° (W) 14:15:19 437.125/150
AIST 2 22 Dec 14:09:42 14:13:46 43° 310° (NW) 14:17:53 435.215
PCSat 22 Dec 14:13:24 14:18:35 45° 307° (NW) 14:23:47 145.827
ITAMSAT 1 22 Dec 14:27:51 14:32:09 26° 265° (W) 14:36:30 435.822/435.867
Gurwin Techsat 1B 22 Dec 14:33:56 14:38:51 38° 263° (W) 14:43:48 435.225
BEESAT 2 22 Dec 14:35:09 14:37:45 16° 321° (NW) 14:40:23 435.950
HORYU 2 22 Dec 14:37:44 14:42:12 77° 257° (WSW) 14:46:44 437.375
SWISSCUBE 22 Dec 14:49:12 14:52:48 22° 296° (WNW) 14:56:22 437.505
ITUPSAT 1 22 Dec 14:50:25 14:54:09 23° 296° (WNW) 14:57:51 437.325
AUBIESAT-1 22 Dec 14:58:20 15:02:30 48° 294° (WNW) 15:06:18 437.475
GONETS M04 22 Dec 15:09:40 15:17:05 29° 66° (ENE) 15:24:24
BEESAT 22 Dec 15:14:41 15:17:10 14° 300° (WNW) 15:19:38 436.000
AIST 1 22 Dec 15:21:07 15:24:31 23° 88° (E) 15:27:55
M-CUBED/EXP-1 PRIME 22 Dec 15:26:01 15:29:31 24° 300° (WNW) 15:32:48 437.505
ISS 22 Dec 15:26:52 15:29:23 20° 351° (N) 15:31:53 145.825
JAS-2 22 Dec 15:31:42 15:38:49 48° 69° (ENE) 15:45:18 435.910
STARS 22 Dec 15:35:23 15:39:36 43° 289° (WNW) 15:43:49 437.465
AO-7 22 Dec 15:42:16 15:50:30 65° 256° (WSW) 15:58:50 29.400- 29.500
KKS-1 22 Dec 15:44:00 15:47:41 26° 293° (WNW) 15:51:22 437.445
Cubesat XI-IV 22 Dec 16:00:52 16:04:02 16° 59° (ENE) 16:07:13 437.490
PCSat 22 Dec 16:02:16 16:03:27 11° 329° (NNW) 16:04:39 145.827
RS-15 22 Dec 16:13:04 16:21:23 23° 0° (N) 16:29:55 29.354- 29.394
CUTE-I 22 Dec 16:31:53 16:36:23 29° 65° (ENE) 16:40:53 437.470
AIST 1 22 Dec 16:58:06 17:02:00 31° 285° (WNW) 17:05:55
ISS 22 Dec 17:04:11 17:06:47 21° 12° (NNE) 17:09:23 145.825
GONETS M04 22 Dec 17:05:56 17:14:33 65° 268° (W) 17:23:05
PRISM 22 Dec 17:07:31 17:08:50 11° 90° (E) 17:10:10 437.425
MOZHAYETS 4 22 Dec 17:07:33 17:12:13 89° 104° (ESE) 17:16:48
MaSat-1 22 Dec 17:08:12 17:10:21 29° 60° (ENE) 17:12:36 437.345
JAS-2 22 Dec 17:17:03 17:23:54 36° 264° (W) 17:30:13 435.910
Cubesat XI-IV 22 Dec 17:38:10 17:43:30 76° 257° (WSW) 17:48:51 437.490
AO-7 22 Dec 17:42:29 17:44:52 11° 275° (W) 17:47:15 29.400- 29.500
STRAND 1 22 Dec 18:01:45 18:05:39 22° 93° (E) 18:09:32 437.568
CUTE-I 22 Dec 18:11:20 18:16:17 39° 262° (W) 18:21:15 437.470
CUSAT 1 22 Dec 18:17:10 18:22:24 19° 62° (ENE) 18:27:56 437.405
RS-15 22 Dec 18:27:55 18:38:07 38° 34° (NE) 18:48:40 29.354- 29.394
CUBESAT XI-V 22 Dec 18:36:44 18:41:17 57° 100° (E) 18:45:48 437.345
ISS 22 Dec 18:40:32 18:43:49 67° 31° (NNE) 18:47:04 145.825
PRISM 22 Dec 18:40:40 18:44:47 62° 287° (WNW) 18:48:51 437.425
MOZHAYETS 4 22 Dec 18:47:26 18:48:42 11° 301° (WNW) 18:49:57
HO-68 22 Dec 18:48:11 18:54:17 32° 60° (ENE) 19:00:24 435.675
CANX-2 22 Dec 18:57:07 18:59:52 17° 64° (ENE) 19:02:37 2200.000
BRITE-PL 22 Dec 19:03:59 19:06:55 19° 65° (ENE) 19:09:51 437.365/2234.400
GONETS M04 22 Dec 19:07:00 19:09:28 11° 289° (WNW) 19:11:57
COMPASS 1 22 Dec 19:12:36 19:15:14 16° 64° (ENE) 19:17:53 437.405
DANDE 22 Dec 19:18:28 19:25:43 40° 72° (ENE) 19:33:43 436.750
GOMX 1 22 Dec 19:19:07 19:22:06 20° 65° (ENE) 19:25:08 467.674
SEEDS 22 Dec 19:20:26 19:23:46 23° 67° (ENE) 19:27:09 437.485
CUTE 1.7 + AOD 2 22 Dec 19:26:26 19:30:10 30° 69° (ENE) 19:33:56 437.475
DOVE 4 22 Dec 19:33:54 19:37:00 21° 66° (ENE) 19:40:10 437.250
BEESAT 2 22 Dec 19:38:00 19:39:16 11° 34° (NE) 19:40:31 435.950
STRAND 1 22 Dec 19:40:12 19:45:04 47° 290° (WNW) 19:49:55 437.568
CINEMA 3 22 Dec 19:43:09 19:45:44 16° 63° (ENE) 19:48:22 145.822/145.860
DX 1 22 Dec 19:53:19 19:56:05 17° 63° (ENE) 19:58:52 434.975-435.025
CUSAT 1 22 Dec 19:58:37 20:06:31 77° 79° (E) 20:15:04 437.405
SO-50 22 Dec 20:06:51 20:11:08 43° 117° (ESE) 20:15:33 436.795
AAUSAT CUBESAT 2 22 Dec 20:09:20 20:13:27 56° 74° (ENE) 20:17:37 437.432
Oscar 11 22 Dec 20:10:34 20:14:22 30° 69° (ENE) 20:18:11 145.826/435.025
CUBESAT XI-V 22 Dec 20:15:26 20:18:16 16° 297° (WNW) 20:21:06 437.345
ISS 22 Dec 20:17:58 20:20:03 16° 227° (SW) 20:22:07 145.825
UKube-1 22 Dec 20:20:39 20:24:26 30° 68° (ENE) 20:28:13 .
CANX-2 22 Dec 20:31:17 20:35:25 48° 261° (W) 20:39:36 2200.000
BEESAT 3 22 Dec 20:32:24 20:36:06 29° 47° (NE) 20:39:44 437.485
HO-68 22 Dec 20:34:37 20:41:38 56° 258° (WSW) 20:48:41 435.675
RS-15 22 Dec 20:40:26 20:51:43 81° 240° (WSW) 21:03:31 29.354- 29.394
BRITE-PL 22 Dec 20:41:23 20:45:13 36° 263° (W) 20:49:05 437.365/2234.400
CUBEBUG 2 22 Dec 20:46:13 20:50:13 45° 72° (ENE) 20:54:20 437.445
COMPASS 1 22 Dec 20:46:28 20:50:34 48° 261° (W) 20:54:42 437.405
ZACube-1 22 Dec 20:46:58 20:50:45 33° 69° (ENE) 20:54:37 437.345
DELFI C3 22 Dec 20:48:47 20:52:51 64° 74° (ENE) 20:56:57 145.870
50 SAT 22 Dec 20:50:33 20:53:12 17° 65° (ENE) 20:55:51 437.505
AIST 2 22 Dec 20:52:39 20:56:05 23° 43° (NE) 20:59:29 435.215
SEEDS 22 Dec 20:55:35 20:59:25 33° 264° (W) 21:03:19 437.485
GOMX 1 22 Dec 20:56:13 21:00:01 36° 263° (W) 21:03:54 467.674
VELOX 1 22 Dec 20:57:01 21:00:40 26° 67° (ENE) 21:04:20 145.980
DANDE 22 Dec 21:01:46 21:09:20 52° 267° (W) 21:17:38 436.750
CUTE 1.7 + AOD 2 22 Dec 21:02:34 21:06:05 25° 266° (W) 21:09:39 437.475
ESTCUBE 1 22 Dec 21:09:12 21:11:51 16° 62° (ENE) 21:14:30 437.505/2401.250
DOVE 4 22 Dec 21:10:48 21:14:34 34° 263° (W) 21:18:27 437.250
FUNcube-1 22 Dec 21:12:32 21:16:41 63° 74° (ENE) 21:20:56 145.935
BEESAT 2 22 Dec 21:14:11 21:18:22 63° 54° (NE) 21:22:29 435.950
PCSat 22 Dec 21:17:06 21:21:54 31° 48° (NE) 21:26:40 145.827
CINEMA 3 22 Dec 21:18:31 21:22:32 48° 261° (W) 21:26:42 145.822/145.860
UWE-3 22 Dec 21:19:15 21:23:27 89° 77° (ENE) 21:27:47 435.000/436.395/437.385
UNISAT 6 22 Dec 21:25:31 21:27:15 12° 89° (E) 21:28:59 437.425
DX 1 22 Dec 21:27:44 21:31:57 49° 260° (W) 21:36:11 434.975-435.025
HUMSAT D 22 Dec 21:29:24 21:33:27 57° 73° (ENE) 21:37:35 437.325/437.525
CUBEBUG 1 22 Dec 21:38:52 21:42:31 27° 68° (ENE) 21:46:11 437.445
AISAT 22 Dec 21:40:41 21:45:05 76° 75° (ENE) 21:49:30 437.250
CUSAT 1 22 Dec 21:42:50 21:49:00 26° 275° (W) 21:55:31 437.405
Oscar 11 22 Dec 21:46:55 21:50:31 25° 265° (W) 21:54:09 145.826/435.025
AAUSAT CUBESAT 2 22 Dec 21:47:30 21:49:29 13° 270° (W) 21:51:28 437.432
SO-50 22 Dec 21:47:55 21:51:50 27° 317° (NW) 21:55:52 436.795
ANTELSAT 22 Dec 21:55:55 21:59:48 25° 94° (E) 22:03:41 437.575/2403.000
UKube-1 22 Dec 21:56:58 22:00:34 25° 264° (W) 22:04:12 .
POPSAT HIP 1 22 Dec 22:04:31 22:07:25 18° 93° (E) 22:10:19 437.405
BEESAT 3 22 Dec 22:10:34 22:14:15 31° 245° (WSW) 22:17:54 437.485
YUBILEINY 22 Dec 22:17:56 22:24:44 26° 81° (E) 22:31:31 435.215
BUGSAT 1 22 Dec 22:18:37 22:21:33 19° 94° (E) 22:24:29 437.445
ZACube-1 22 Dec 22:23:56 22:27:12 22° 267° (W) 22:30:32 437.345
50 SAT 22 Dec 22:24:17 22:28:05 41° 262° (W) 22:31:57 437.505
CUBEBUG 2 22 Dec 22:24:34 22:27:12 16° 269° (W) 22:29:53 437.445
TISAT 1 22 Dec 22:26:34 22:29:47 22° 66° (ENE) 22:33:01 437.305
DELFI C3 22 Dec 22:27:28 22:28:32 11° 271° (W) 22:29:37 145.870
TIGRISAT 22 Dec 22:29:23 22:34:00 52° 100° (E) 22:38:37 435.000
DUCHIFAT 1 22 Dec 22:30:31 22:34:23 33° 97° (E) 22:38:15 145.980
AIST 2 22 Dec 22:30:48 22:34:56 47° 242° (WSW) 22:39:00 435.215
VELOX 1 22 Dec 22:33:13 22:37:08 31° 263° (W) 22:41:04 145.980
SPROUT 22 Dec 22:37:22 22:40:55 26° 68° (ENE) 22:44:30 437.525
ESTCUBE 1 22 Dec 22:43:46 22:48:15 60° 259° (W) 22:52:45 437.505/2401.250
QB50P2 22 Dec 22:45:40 22:49:51 50° 100° (E) 22:54:00 145.880/145.840
FUNcube-1 22 Dec 22:52:02 22:53:30 12° 271° (W) 22:54:58 145.935
BEESAT 2 22 Dec 22:54:02 22:56:05 13° 251° (WSW) 22:58:08 435.950
RS-15 22 Dec 22:54:58 23:02:21 20° 261° (W) 23:09:57 29.354- 29.394
POLYITAN 1 22 Dec 22:55:19 22:59:36 65° 101° (ESE) 23:03:52 437.675
NANOSAT C BR1 22 Dec 22:55:23 22:59:37 64° 101° (ESE) 23:03:51 145.865
O/OREOS (USA 219) 22 Dec 22:55:53 22:57:39 12° 98° (E) 22:59:26 437.305
UNISAT 6 22 Dec 22:59:49 23:04:33 76° 285° (WNW) 23:09:16 437.425
PCSat 22 Dec 23:00:19 23:05:27 44° 247° (WSW) 23:10:33 145.827
HUMSAT D 22 Dec 23:07:50 23:09:38 13° 270° (W) 23:11:27 437.325/437.525
BEESAT 22 Dec 23:08:31 23:10:14 12° 58° (ENE) 23:11:58 436.000
QB50P1 22 Dec 23:10:13 23:14:31 88° 282° (WNW) 23:18:47 145.935-145.965
CUBEBUG 1 22 Dec 23:15:01 23:18:49 29° 264° (W) 23:22:37 437.445
AISAT 22 Dec 23:21:33 23:22:14 10° 271° (W) 23:22:55 437.250
ANTELSAT 22 Dec 23:32:20 23:36:39 37° 291° (WNW) 23:40:59 437.575/2403.000
POPSAT HIP 1 22 Dec 23:39:28 23:43:30 42° 289° (WNW) 23:47:32 437.405
BUGSAT 1 22 Dec 23:53:27 23:57:09 35° 290° (WNW) 00:00:53 437.445
TISAT 1 23 Dec 00:01:36 00:05:25 34° 263° (W) 00:09:16 437.305
DUCHIFAT 1 23 Dec 00:06:43 00:10:05 23° 293° (WNW) 00:13:26 145.980
TIGRISAT 23 Dec 00:07:07 00:10:21 19° 296° (WNW) 00:13:35 435.000
YUBILEINY 23 Dec 00:12:03 00:20:44 69° 281° (W) 00:29:27 435.215
AUBIESAT-1 23 Dec 00:13:05 00:17:17 30° 62° (ENE) 00:21:30 437.475
SPROUT 23 Dec 00:13:13 00:16:55 28° 264° (W) 00:20:39 437.525
SWISSCUBE 23 Dec 00:18:11 00:22:52 57° 72° (ENE) 00:27:35 437.505
ITUPSAT 1 23 Dec 00:19:43 00:24:23 54° 72° (ENE) 00:29:05 437.325
QB50P2 23 Dec 00:22:43 00:25:22 16° 296° (WNW) 00:28:01 145.880/145.840
O/OREOS (USA 219) 23 Dec 00:32:02 00:36:27 66° 295° (WNW) 00:40:54 437.305
NANOSAT C BR1 23 Dec 00:32:58 00:34:59 13° 298° (WNW) 00:37:00 145.865
POLYITAN 1 23 Dec 00:32:59 00:35:01 13° 298° (WNW) 00:37:03 437.675
Oscar 19 23 Dec 00:38:45 00:42:45 22° 93° (E) 00:46:42 437.125/150
M-CUBED/EXP-1 PRIME 23 Dec 00:39:53 00:44:40 57° 67° (ENE) 00:49:28 437.505
BEESAT 23 Dec 00:42:33 00:47:21 89° 256° (WSW) 00:52:10 436.000
STARS 23 Dec 00:58:22 01:01:29 19° 64° (ENE) 01:04:36 437.465
ITAMSAT 1 23 Dec 01:01:30 01:03:40 13° 89° (E) 01:05:49 435.822/435.867
KKS-1 23 Dec 01:06:30 01:10:28 33° 69° (ENE) 01:14:28 437.445
